Location: Bremen
(53.0793°N, 8.8017°E)
Time: 22:20:57
(UTC+01:00)

S-56A Canister/Altair - Pass Details

Date: 06 December 2021
Orbit: 634 x 2499 km, 38.9° (Epoch: 26 January)

Event Time Altitude Azimuth Distance (km) Brightness Sun altitude
Rises 22:30:16 0° 210° (SSW) 5,647 - -53.5°
Reaches altitude 10° 22:35:39 10° 196° (SSW) 4,319 - -54.0°
Maximum altitude 22:42:40 19° 157° (SSE) 3,128 - -54.7°
Drops below altitude 10° 22:48:15 10° 116° (ESE) 3,335 - -55.2°
Sets 22:51:40 0° 99° (E) 4,005 - -55.5°
